www.pogodaiklimat.ru

Погода и климат >> Архив погоды >> Россия >> Оренбургская область >> Зерносовхоз Озерный


ПОГОДА в Зерносовхозе Озерном

  • Прогноз погоды в Зерносовхозе Озерном
  • Монитор погоды в Зерносовхозе Озерном

АРХИВ ПОГОДЫ в Зерносовхозе Озерном

Время (UTC), дата Ветер
(напр.,м/с)
 
Видим.   Явления Облачность Т
(С)
Тd
(С)
f
(%)
Тe
(С)
Тes
(С)
Комфортность P
(гПа)
Po
(гПа)
Тmin
(С)
Tmax
(С)
R
(мм)
R24
(мм)
S
(см)
21 8.09 СЗ 4 10 км 9/9 630 м
[Sc]
+9.2 +7.2 87 +6 +6 1021.3 983.7
00 9.09 СЗ 4 10 км 9/0
[Ac As]
+6.6 +5.6 93 +3 +3 1022.1 984.1
03 9.09 С 5 20 км ясно +8.1 +6.1 87 +4 +5 1022.7 984.9 +5.5
06 9.09 С 8-13
{13}
20 км 6/6 600 м
[Cu hum]
+15.0 +7.0 59 +13 +14 1021.9 985.0
09 9.09 С 4
{13}
20 км 9/9 700 м
[Cu hum]
+17.6 +5.6 45 +17 +18 1021.4 984.8
12 9.09 С 5 20 км 9/9 660 м
[Cu med, cong]
+18.8 +4.5 39 +19 +19 1021.3 984.8
15 9.09 СЗ 3 10 км 9/0
[Ac lent]
+15.1 +4.2 48 +15 +15 1022.6 985.6 +19.2
18 9.09 СЗ 2 10 км ясно +6.5 +2.0 73 +4 +4 1024.7 986.5
21 9.09 СЗ 3 10 км ясно +4.8 +2.0 82 +1 +1 1025.1 986.7
00 10.09 СЗ 3 10 км ясно +4.3 +2.1 86 +1 +1 1025.6 987.1
03 10.09 СЗ 3 20 км 9/0
[Cs]
+7.6 +5.0 84 +5 +5 1026.1 988.1 +3.3
06 10.09 СВ 3 20 км 10/0
[As trans]
+15.2 +6.8 57 +15 +17 1025.8 988.8
09 10.09 СВ 4 20 км 9/9 660 м
[Sc]
+18.0 +2.8 36 +18 +18 1025.6 988.9
12 10.09 СВ 3 20 км 9/6 630 м
[Cb cap Ci sp]
+18.6 +4.1 38 +19 +20 1025.6 989.0
15 10.09 СВ 2 10 км 8/8 600 м
[Sc diur, vesp]
+12.9 +3.9 54 +12 +12 1027.4 990.0 +18.6
18 10.09 СЗ 2 10 км ясно +7.9 +2.2 67 +6 +6 1028.7 990.6
21 10.09 СЗ 2 10 км ясно +8.0 +3.6 74 +6 +6 1029.5 991.4
00 11.09 С 2 10 км ясно +8.8 +5.8 81 +7 +7 1030.3 992.3
03 11.09 С 3 20 км 9/0
[Ac cuf]
+9.9 +7.4 84 +8 +8 1031.6 993.7 +5.6
06 11.09 С 3 20 км 9/9 660 м
[Cu hum]
+17.4 +8.2 55 +17 +18 1031.4 994.5
09 11.09 С 3 20 км 9/9 660 м
[Cu hum]
+18.7 +5.1 41 +19 +20 1031.0 994.2
12 11.09 С 2 20 км 6/6 600 м
[Cu hum]
+19.9 +2.5 31 +21 +22 комфорт 1030.7 994.0
15 11.09 С 2 10 км ясно +14.3 +2.2 44 +14 +14 1031.7 994.3 +20.9
18 11.09 СЗ 3 10 км ясно +8.4 -0.4 54 +6 +6 1033.1 994.8
21 11.09 С 2 10 км ясно +5.6 0.0 67 +3 +3 1033.2 994.6
00 12.09 З 1 10 км ясно +2.6 -2.3 70 +1 +1 1033.6 994.5
03 12.09 штиль 0 20 км ясно +9.2 +1.3 58 +9 +10 1032.6 994.5 +2.3
06 12.09 З 3 20 км ясно +20.0 +3.7 34 +21 +27 комфорт 1030.3 993.7
09 12.09 СЗ 3 20 км ясно +22.1 -0.0 23 +21 +29 комфорт 1028.5 992.1
12 12.09 СЗ 4 20 км ясно +22.8 -1.2 20 +22 +23 комфорт 1026.5 990.3
15 12.09 СЗ 4 10 км ясно +14.8 -0.9 34 +14 +14 1027.1 989.9 +22.9
18 12.09 СЗ 1 10 км ясно +11.6 -0.2 44 +12 +12 1027.3 989.7
21 12.09 С 2 10 км ясно +6.6 -0.6 60 +5 +5 1027.3 989.0
00 13.09 СЗ 2 10 км ясно +4.8 -1.4 64 +3 +3 1027.3 988.8
03 13.09 С 1 20 км ясно +8.1 +1.4 63 +8 +9 1027.1 989.1 +3.8
06 13.09 СЗ 2 20 км ясно +20.7 +4.7 35 +22 +29 комфорт 1025.1 988.8
09 13.09 С 2 20 км 3/3 600 м
[Cu hum]
+23.8 +3.5 27 +23 +30 комфорт 1023.5 987.6
12 13.09 ЮВ 2 20 км 3/3 600 м
[Cu hum]
+23.4 +2.7 26 +23 +25 комфорт 1022.2 986.3
15 13.09 Ю 1 10 км ясно +16.0 +4.3 46 +17 +17 1022.7 985.9 +24.0
18 13.09 Ю 1 10 км ясно +9.0 +1.7 60 +9 +9 1023.8 986.0
21 13.09 С 1 10 км ясно +6.7 +0.2 63 +6 +6 1023.5 985.4
00 14.09 СЗ 2 10 км ясно +5.9 -0.6 63 +4 +4 1023.0 984.8
03 14.09 штиль 0 20 км ясно +9.0 +1.6 60 +9 +10 1022.5 984.7 +4.4
06 14.09 Ю 1 20 км ясно +22.9 +2.4 26 +22 +31 комфорт 1020.4 984.4
09 14.09 ЮЗ 3 20 км ясно +24.9 -1.2 18 +23 +31 комфорт 1018.7 983.1
12 14.09 С 1 20 км 4/4 600 м
[Cu hum]
+24.9 -2.5 16 +23 +25 комфорт 1017.7 982.1
15 14.09 З 3 10 км 6/0
[Ac lent]
+17.9 -2.0 26 +18 +18 1018.6 982.1 +26.1
18 14.09 СЗ 1 10 км 3/0
[Ac cast]
+10.4 -3.4 38 +11 +11 1019.6 982.1
21 14.09 ЮЗ 1 10 км ясно +7.3 -2.4 50 +7 +7 1019.7 981.8
00 15.09 С 1 10 км ясно +4.4 -2.9 59 +4 +4 1020.1 981.8
03 15.09 штиль 0 20 км 4/0
[Ac lent]
+7.5 -0.8 56 +7 +8 1019.6 981.8 +4.2
06 15.09 ЮЗ 2 20 км 4/0
[Ac lent]
+23.3 +0.7 22 +22 +27 комфорт 1017.5 981.7
09 15.09 ЮЗ 3 20 км 9/9 660 м
[Cu hum]
+23.9 0.0 21 +23 +23 комфорт 1016.3 980.7
12 15.09 ЮЗ 3 20 км 9/9 660 м
[Cu hum]
+24.8 -1.3 18 +23 +23 комфорт 1015.2 979.6
15 15.09 Ю 1 10 км 9/9 630 м
[Sc]
+16.5 +0.9 35 +17 +17 1015.7 979.1 +25.5
18 15.09 Ю 2 10 км 8/8 600 м
[Sc]
+14.1 +1.1 41 +14 +14 1015.3 978.4

 

Местоположение метеостанции Зерносовхоз Озерный (Оренбургская область, Россия): широта 51.10 долгота 60.87 высота над уровнем моря 312 м.

В архиве по умолчанию представлена погода в Зерносовхозе Озерном за последнюю неделю. Архивные данные за месяц целиком и за предыдущие месяцы, начиная с января 2011 года, Вы можете получить, выбрав интересующий диапазон дат из раскрывающегося списка и нажав кнопку "Ввод!".


*Определитесь, кто Вы:
робот инопланетянин человек

Внимание! Время в таблицах - всемирное. Для получения местного времени необходимо прибавить поправку, которая равна 5 ч.

Смотрите также архив погоды в соседних городах и на ближайших метеорологических станциях:

Погода в Теренсае (Актюбинская область, Казахстан) (56 км)
Погода в Комсомольском (Костанайская область, Казахстан) (81 км)
Погода в Домбаровском (Оренбургская область, Россия) (100 км)
Погода в Айдырля (Оренбургская область, Россия) (117 км)
Погода в Аралколе (Актюбинская область, Казахстан) (128 км)
Погода в Баскудуке (Мангистауская область, Казахстан) (132 км)
Погода в Житикаре (Костанайская область, Казахстан) (137 км)
Погода в Карабутаке (Актюбинская область, Казахстан) (138 км)
Погода в Бредах (Челябинская область, Россия) (152 км)
Погода в Орске (Оренбургская область, Россия) (159 км)

Пояснения к столбцам:

Ветер - указаны скорость ветра в м/с - средняя за 10 мин, порывы в срок и между сроками (в фигурных скобках) и направление, откуда дует ветер: С - северный, СВ - северо-восточный, В - восточный, ЮВ - юго-восточный, Ю - южный, ЮЗ - юго-западный, З - западный, СЗ - северо-западный.
Видимость - горизонтальная дальность видимости в метрах или километрах. При видимости от 1 до 10 км при отсутствии осадков обычно наблюдается дымка, при ухудшении видимости до 1 км и менее - туман. В сухую погоду видимость может ухудшаться дымом, пылью или мглою.
Явления - указаны атмосферные явления, наблюдавшиеся в срок или в последний час перед сроком; фигурными скобками обозначены явления, наблюдавшиеся между сроками (за 1-3 часа до срока); квадратными скобками обозначены град или гололедные отложения с указанием их диаметра в мм.
Облачность - указаны через наклонную черту общая и нижняя облачность в баллах и высота нижней границы облаков в метрах; квадратными скобками обозначены формы облаков: Ci - перистые, Cs - перисто-слоистые, Cc - перисто-кучевые, Ac - высококучевые, As - высокослоистые, Sc - слоисто-кучевые, Ns - слоисто-дождевые, Cu - кучевые, Cb - кучево-дождевые. Подробнее классификацию облаков см. в Атласе облаков (PDF).
T - Температура воздуха - температура, измеренная на высоте 2 м над землей.
Td - Температура точки росы - температура, при понижении до которой содержащийся в воздухе водяной пар достигнет насыщения.
f - Относительная влажность воздуха - влажноcть воздуха, измеренная на высоте 2 м над землей.
Te - Эффективная температура - температура, которую ощущает одетый по сезону человек в тени. Характеристика душности погоды. При расчете учитывается влияние влажности воздуха и скорости ветра на теплоощущения человека.
Tes - Эффективная температура на солнце - температура, которую ощущает человек, с поправкой на солнечный нагрев. Характеристика знойности погоды. Зависит от высоты солнца над горизонтом, облачности и скорости ветра. Ночью, в пасмурную погоду, а также при ветре 12 м/с и более поправка равна нулю.
P - Атмосферное давление - приведенное к уровню моря атмосферное давление.
Po - Атмосферное давление - измеренное на уровне метеостанции атмосферное давление.
Tmin - Минимальная температура - минимум температуры воздуха на высоте 2 м над землей.
Tmax - Максимальная температура - максимум температуры воздуха на высоте 2 м над землей.
R - Количество осадков - Количество выпавших осадков за период времени, мм. При наведении курсора мыши на число - период времени, за который выпало указанное количество осадков.
R24 - Количество осадков - Количество выпавших осадков за 24 часа, мм.
S - Снежный покров - Высота снежного покрова, см. При наведении курсора мыши на число - состояние снежного покрова и степень покрытия местности в баллах.